| time (UTC) | temp F | wind direction | speed MPH | gust MPH | rain 1hr in | rain 24hr in | rain mn in | humidity % | barometer mb |
| 20260505181548 | 65 | 254 | 18.0 | 30.0 | 0.00 | 0.00 | 0.00 | 62 | 1013.0 |
| 20260505180602 | 64 | 254 | 17.0 | 30.0 | 0.00 | 0.00 | 0.00 | 62 | 1013.0 |
| 20260505175607 | 64 | 265 | 16.0 | 29.0 | 0.00 | 0.00 | 0.00 | 63 | 1013.0 |
| 20260505174559 | 64 | 249 | 15.0 | 29.0 | 0.00 | 0.00 | 0.00 | 63 | 1013.0 |
| 20260505173536 | 63 | 259 | 15.0 | 29.0 | 0.00 | 0.00 | 0.00 | 65 | 1013.0 |
| 20260505172519 | 63 | 254 | 16.0 | 25.0 | 0.00 | 0.00 | 0.00 | 66 | 1013.1 |
| 20260505171451 | 63 | 269 | 15.0 | 28.0 | 0.00 | 0.00 | 0.00 | 66 | 1013.1 |
| 20260505170428 | 62 | 263 | 17.0 | 28.0 | 0.00 | 0.00 | 0.00 | 66 | 1012.8 |
| 20260505165428 | 62 | 250 | 16.0 | 27.0 | 0.00 | 0.00 | 0.00 | 67 | 1012.8 |
| 20260505164443 | 62 | 265 | 14.0 | 26.0 | 0.00 | 0.00 | 0.00 | 68 | 1012.8 |
| 20260505163448 | 62 | 267 | 14.0 | 25.0 | 0.00 | 0.00 | 0.00 | 68 | 1012.9 |
| 20260505153009 | 60 | 286 | 13.0 | 24.0 | 0.00 | 0.00 | 0.00 | 73 | 1012.8 |
| 20260505151951 | 60 | 252 | 14.0 | 26.0 | 0.00 | 0.00 | 0.00 | 73 | 1012.6 |
| 20260505150942 | 59 | 270 | 15.0 | 26.0 | 0.00 | 0.00 | 0.00 | 73 | 1012.7 |
| 20260505124350 | 59 | 248 | 15.0 | 27.0 | 0.00 | 0.00 | 0.00 | 76 | 1011.7 |
| 20260505123358 | 59 | 269 | 13.0 | 26.0 | 0.00 | 0.00 | 0.00 | 76 | 1011.7 |
| 20260505122358 | 59 | 307 | 15.0 | 29.0 | 0.00 | 0.00 | 0.00 | 76 | 1011.6 |
| 20260505121354 | 59 | 273 | 15.0 | 35.0 | 0.00 | 0.00 | 0.00 | 75 | 1011.5 |
| 20260505120356 | 59 | 262 | 16.0 | 35.0 | 0.00 | 0.00 | 0.00 | 75 | 1011.4 |
| 20260505115400 | 59 | 279 | 15.0 | 28.0 | 0.00 | 0.00 | 0.00 | 75 | 1011.4 |
| 20260505114356 | 59 | 266 | 14.0 | 29.0 | 0.00 | 0.00 | 0.00 | 74 | 1011.4 |
| 20260505113348 | 60 | 307 | 17.0 | 29.0 | 0.00 | 0.00 | 0.00 | 74 | 1011.3 |
| 20260505112356 | 60 | 291 | 16.0 | 28.0 | 0.00 | 0.00 | 0.00 | 74 | 1011.1 |
| 20260505111345 | 60 | 269 | 13.0 | 27.0 | 0.00 | 0.00 | 0.00 | 74 | 1011.1 |
| 20260505101248 | 61 | 270 | 12.0 | 26.0 | 0.00 | 0.00 | 0.00 | 73 | 1010.7 |
| 20260505100235 | 61 | 258 | 16.0 | 31.0 | 0.00 | 0.00 | 0.00 | 72 | 1010.6 |
| 20260505095245 | 62 | 300 | 17.0 | 31.0 | 0.00 | 0.00 | 0.00 | 72 | 1010.5 |
| 20260505094234 | 62 | 277 | 15.0 | 28.0 | 0.00 | 0.00 | 0.00 | 72 | 1010.4 |
| 20260505092038 | 63 | 282 | 17.0 | 33.0 | 0.00 | 0.00 | 0.00 | 71 | 1010.3 |
| 20260505091047 | 63 | 281 | 14.0 | 26.0 | 0.00 | 0.00 | 0.00 | 70 | 1010.4 |
| 20260505090023 | 63 | 279 | 17.0 | 35.0 | 0.00 | 0.00 | 0.00 | 70 | 1010.3 |
| 20260505085043 | 64 | 265 | 18.0 | 35.0 | 0.00 | 0.00 | 0.00 | 69 | 1010.1 |
| 20260505084024 | 64 | 286 | 16.0 | 31.0 | 0.00 | 0.00 | 0.00 | 69 | 1010.0 |
| 20260505081920 | 65 | 273 | 17.0 | 27.0 | 0.00 | 0.00 | 0.00 | 70 | 1009.9 |
| 20260505080854 | 65 | 283 | 15.0 | 26.0 | 0.00 | 0.00 | 0.00 | 70 | 1009.8 |
| 20260505075851 | 65 | 271 | 14.0 | 28.0 | 0.00 | 0.00 | 0.00 | 70 | 1009.7 |
| 20260505074851 | 65 | 271 | 16.0 | 28.0 | 0.00 | 0.00 | 0.00 | 70 | 1009.6 |
| 20260505073854 | 66 | 277 | 16.0 | 28.0 | 0.00 | 0.00 | 0.00 | 70 | 1009.6 |
| 20260505072917 | 66 | 279 | 14.0 | 28.0 | 0.00 | 0.00 | 0.00 | 69 | 1009.6 |
| 20260505071848 | 66 | 269 | 14.0 | 25.0 | 0.00 | 0.00 | 0.00 | 69 | 1009.4 |
| 20260505070902 | 67 | 293 | 14.0 | 31.0 | 0.00 | 0.00 | 0.00 | 68 | 1009.3 |
| 20260505065833 | 68 | 310 | 15.0 | 31.0 | 0.00 | 0.00 | 0.00 | 67 | 1009.2 |
| 20260505064851 | 68 | 302 | 16.0 | 28.0 | 0.00 | 0.00 | 0.00 | 66 | 1009.1 |
| 20260505063912 | 68 | 294 | 14.0 | 32.0 | 0.00 | 0.00 | 0.00 | 66 | 1009.1 |
| 20260505062931 | 69 | 304 | 16.0 | 32.0 | 0.00 | 0.00 | 0.00 | 65 | 1009.0 |
| 20260505061900 | 69 | 263 | 13.0 | 27.0 | 0.00 | 0.00 | 0.00 | 65 | 1009.1 |
| 20260505060854 | 69 | 328 | 16.0 | 31.0 | 0.00 | 0.00 | 0.00 | 65 | 1009.1 |
| 20260505055853 | 69 | 323 | 16.0 | 31.0 | 0.00 | 0.00 | 0.00 | 65 | 1009.0 |
| 20260505053717 | 68 | 244 | 16.0 | 27.0 | 0.00 | 0.00 | 0.00 | 64 | 1008.9 |
| 20260505052718 | 69 | 289 | 16.0 | 31.0 | 0.00 | 0.00 | 0.00 | 64 | 1008.9 |
| 20260505050548 | 69 | 311 | 16.0 | 29.0 | 0.00 | 0.00 | 0.00 | 62 | 1008.8 |
| 20260505041456 | 70 | 301 | 15.0 | 25.0 | 0.00 | 0.00 | 0.00 | 59 | 1008.2 |
| 20260505040457 | 70 | 293 | 15.0 | 27.0 | 0.00 | 0.00 | 0.00 | 58 | 1007.9 |
| 20260505034306 | 70 | 298 | 16.0 | 27.0 | 0.00 | 0.00 | 0.00 | 57 | 1007.5 |
| 20260505033301 | 71 | 262 | 15.0 | 27.0 | 0.00 | 0.00 | 0.00 | 56 | 1007.5 |
| 20260505032315 | 71 | 284 | 15.0 | 27.0 | 0.00 | 0.00 | 0.00 | 55 | 1007.3 |
| 20260505031325 | 72 | 306 | 14.0 | 25.0 | 0.00 | 0.00 | 0.00 | 54 | 1007.2 |
| 20260505030322 | 72 | 265 | 13.0 | 26.0 | 0.00 | 0.00 | 0.00 | 54 | 1007.2 |
| 20260505024222 | 73 | 273 | 14.0 | 26.0 | 0.00 | 0.00 | 0.00 | 53 | 1006.9 |
| 20260505023201 | 73 | 292 | 14.0 | 23.0 | 0.00 | 0.00 | 0.00 | 53 | 1007.0 |
| 20260505022155 | 73 | 283 | 11.0 | 23.0 | 0.00 | 0.00 | 0.00 | 52 | 1006.9 |
| 20260505021155 | 74 | 274 | 13.0 | 21.0 | 0.00 | 0.00 | 0.00 | 52 | 1007.0 |
| 20260505015047 | 74 | 284 | 12.0 | 25.0 | 0.00 | 0.00 | 0.00 | 51 | 1006.8 |
| 20260505014103 | 75 | 282 | 12.0 | 25.0 | 0.00 | 0.00 | 0.00 | 50 | 1006.8 |
| 20260505013104 | 75 | 286 | 12.0 | 24.0 | 0.00 | 0.00 | 0.00 | 50 | 1006.8 |
| 20260505012118 | 75 | 284 | 13.0 | 23.0 | 0.00 | 0.00 | 0.00 | 50 | 1006.8 |
| 20260505011134 | 75 | 320 | 13.0 | 22.0 | 0.00 | 0.00 | 0.00 | 49 | 1006.7 |
| 20260505010129 | 75 | 291 | 14.0 | 23.0 | 0.00 | 0.00 | 0.00 | 49 | 1006.7 |
| 20260505003949 | 76 | 283 | 13.0 | 24.0 | 0.00 | 0.00 | 0.00 | 48 | 1006.7 |
| 20260505003001 | 76 | 273 | 12.0 | 20.0 | 0.00 | 0.00 | 0.00 | 48 | 1006.7 |
| 20260505001937 | 76 | 285 | 14.0 | 23.0 | 0.00 | 0.00 | 0.00 | 48 | 1006.7 |
| 20260504234726 | 76 | 293 | 17.0 | 30.0 | 0.00 | 0.00 | 0.00 | 47 | 1006.8 |
| 20260504232547 | 76 | 286 | 16.0 | 27.0 | 0.00 | 0.00 | 0.00 | 47 | 1006.8 |
| 20260504230337 | 77 | 280 | 16.0 | 30.0 | 0.00 | 0.00 | 0.00 | 45 | 1006.9 |
| 20260504224158 | 77 | 259 | 14.0 | 26.0 | 0.00 | 0.00 | 0.00 | 46 | 1007.1 |
| 20260504223129 | 77 | 305 | 15.0 | 26.0 | 0.00 | 0.00 | 0.00 | 45 | 1007.2 |
| 20260504221007 | 77 | 263 | 15.0 | 29.0 | 0.00 | 0.00 | 0.00 | 45 | 1007.3 |
| 20260504220016 | 76 | 217 | 16.0 | 27.0 | 0.00 | 0.00 | 0.00 | 46 | 1007.3 |
| 20260504213817 | 76 | 289 | 13.0 | 23.0 | 0.00 | 0.00 | 0.00 | 46 | 1007.5 |
| 20260504212752 | 76 | 284 | 13.0 | 23.0 | 0.00 | 0.00 | 0.00 | 45 | 1007.6 |
| 20260504211814 | 77 | 250 | 11.0 | 22.0 | 0.00 | 0.00 | 0.00 | 45 | 1007.7 |
| 20260504210819 | 76 | 227 | 12.0 | 22.0 | 0.00 | 0.00 | 0.00 | 45 | 1007.7 |
| 20260504205756 | 76 | 270 | 11.0 | 22.0 | 0.00 | 0.00 | 0.00 | 46 | 1007.9 |
| 20260504204728 | 75 | 267 | 11.0 | 18.0 | 0.00 | 0.00 | 0.00 | 47 | 1008.0 |
| 20260504203744 | 76 | 274 | 11.0 | 20.0 | 0.00 | 0.00 | 0.00 | 47 | 1008.1 |
| 20260504201600 | 75 | 261 | 10.0 | 22.0 | 0.00 | 0.00 | 0.00 | 45 | 1008.2 |
| 20260504200543 | 74 | 277 | 11.0 | 19.0 | 0.00 | 0.00 | 0.00 | 48 | 1008.2 |
| 20260504194414 | 74 | 259 | 12.0 | 22.0 | 0.00 | 0.00 | 0.00 | 47 | 1008.4 |
| 20260504193351 | 74 | 278 | 13.0 | 25.0 | 0.00 | 0.00 | 0.00 | 47 | 1008.4 |
| 20260504192350 | 73 | 294 | 13.0 | 25.0 | 0.00 | 0.00 | 0.00 | 49 | 1008.5 |
| 20260504191405 | 73 | 259 | 14.0 | 23.0 | 0.00 | 0.00 | 0.00 | 49 | 1008.5 |
| 20260504190423 | 72 | 250 | 13.0 | 22.0 | 0.00 | 0.00 | 0.00 | 50 | 1008.7 |
| 20260504185359 | 72 | 259 | 13.0 | 26.0 | 0.00 | 0.00 | 0.00 | 50 | 1008.7 |
| 20260504184415 | 72 | 272 | 13.0 | 26.0 | 0.00 | 0.00 | 0.00 | 51 | 1008.9 |
| 20260504182234 | 71 | 284 | 11.0 | 27.0 | 0.00 | 0.00 | 0.00 | 52 | 1008.9 |